DRK400 VQPR-VNKT

Flight info

Callsign DRK400
Flight time 0h 44m
Altitude 32000
Route PRO G348 KIMTI KMTI1G
Aircraft A319/M-SDE3FGHIRWY/LB1

Departure

Time 2026-05-05 10:24
Airport Paro International Airport (VQPR)

Arrival

Time 2026-05-05 11:09
Airport Tribhuvan International Airport (VNKT)
Time Latitude Longitude Altitude Speed Heading
2026-05-05 10:15 27.40626 89.42102 7333 ft 0 kts 241°
2026-05-05 10:17 27.40630 89.42109 7333 ft 4 kts 243°
2026-05-05 10:17 27.40638 89.42137 7334 ft 4 kts 268°
2026-05-05 10:17 27.40633 89.42164 7334 ft 4 kts 314°
2026-05-05 10:17 27.40626 89.42171 7334 ft 1 kts 330°
2026-05-05 10:18 27.40625 89.42171 7334 ft 0 kts 330°
2026-05-05 10:19 27.40630 89.42168 7334 ft 1 kts 330°
2026-05-05 10:19 27.40643 89.42160 7334 ft 3 kts 330°
2026-05-05 10:20 27.40655 89.42161 7335 ft 1 kts 16°
2026-05-05 10:20 27.40660 89.42165 7335 ft 1 kts 37°
2026-05-05 10:20 27.40665 89.42171 7335 ft 1 kts 46°
2026-05-05 10:20 27.40666 89.42173 7336 ft 2 kts 47°
2026-05-05 10:21 27.40684 89.42208 7338 ft 9 kts 57°
2026-05-05 10:21 27.40771 89.42185 7339 ft 20 kts 331°
2026-05-05 10:21 27.40901 89.42103 7338 ft 20 kts 330°
2026-05-05 10:21 27.41018 89.42028 7338 ft 19 kts 330°
2026-05-05 10:22 27.41134 89.41956 7336 ft 18 kts 329°
2026-05-05 10:22 27.41194 89.41904 7336 ft 2 kts 41°
2026-05-05 10:22 27.41193 89.41914 7336 ft 1 kts 112°
2026-05-05 10:22 27.41190 89.41916 7336 ft 0 kts 130°
2026-05-05 10:23 27.41188 89.41918 7336 ft 0 kts 137°
2026-05-05 10:23 27.41187 89.41919 7336 ft 0 kts 139°
2026-05-05 10:23 27.41186 89.41920 7336 ft 0 kts 139°
2026-05-05 10:23 27.41184 89.41921 7336 ft 0 kts 139°
2026-05-05 10:24 27.41118 89.41965 7336 ft 40 kts 150°
2026-05-05 10:24 27.40639 89.42266 7338 ft 115 kts 150°
2026-05-05 10:24 27.39769 89.42820 7443 ft 160 kts 150°
2026-05-05 10:24 27.38822 89.43529 7982 ft 173 kts 136°
2026-05-05 10:25 27.38246 89.44803 8397 ft 197 kts 108°
2026-05-05 10:25 27.37371 89.45964 8811 ft 207 kts 161°
2026-05-05 10:25 27.35997 89.46491 9500 ft 217 kts 161°
2026-05-05 10:25 27.34501 89.47172 9900 ft 246 kts 151°
2026-05-05 10:26 27.33332 89.48623 10457 ft 264 kts 111°
2026-05-05 10:26 27.32790 89.50640 11191 ft 273 kts 108°
2026-05-05 10:26 27.32265 89.52699 11952 ft 276 kts 107°
2026-05-05 10:26 27.31502 89.54620 12843 ft 265 kts 128°
2026-05-05 10:27 27.30208 89.56018 13714 ft 257 kts 153°
2026-05-05 10:27 27.28526 89.56623 14340 ft 257 kts 175°
2026-05-05 10:27 27.26658 89.56853 14473 ft 284 kts 176°
2026-05-05 10:27 27.24613 89.57107 14659 ft 307 kts 176°
2026-05-05 10:28 27.22424 89.56956 14795 ft 326 kts 197°
2026-05-05 10:28 27.20360 89.55769 14919 ft 345 kts 221°
2026-05-05 10:28 27.18882 89.53579 15048 ft 364 kts 246°
2026-05-05 10:28 27.17985 89.50886 15231 ft 380 kts 251°
2026-05-05 10:29 27.17123 89.48050 15637 ft 387 kts 252°
2026-05-05 10:29 27.16263 89.45156 16333 ft 384 kts 252°
2026-05-05 10:29 27.15418 89.42309 16952 ft 385 kts 252°
2026-05-05 10:29 27.14560 89.39444 17559 ft 388 kts 252°
2026-05-05 10:30 27.13705 89.36616 18226 ft 388 kts 252°
2026-05-05 10:30 27.12831 89.33755 18729 ft 388 kts 251°
2026-05-05 10:30 27.11947 89.30885 19207 ft 390 kts 251°
2026-05-05 10:30 27.11059 89.28006 19719 ft 391 kts 251°
2026-05-05 10:31 27.10166 89.25118 20170 ft 393 kts 251°
2026-05-05 10:31 27.09270 89.22214 20636 ft 395 kts 251°
2026-05-05 10:31 27.08367 89.19280 21045 ft 400 kts 251°
2026-05-05 10:31 27.07459 89.16325 21539 ft 402 kts 251°
2026-05-05 10:32 27.06545 89.13358 22046 ft 402 kts 251°
2026-05-05 10:32 27.05629 89.10390 22463 ft 402 kts 251°
2026-05-05 10:32 27.04713 89.07421 22933 ft 403 kts 250°
2026-05-05 10:32 27.03792 89.04441 23361 ft 405 kts 250°
2026-05-05 10:33 27.02868 89.01451 23720 ft 407 kts 250°
2026-05-05 10:33 27.01939 88.98444 24056 ft 408 kts 250°
2026-05-05 10:33 27.01004 88.95423 24369 ft 410 kts 250°
2026-05-05 10:33 27.00064 88.92396 24669 ft 412 kts 250°
2026-05-05 10:34 26.99121 88.89355 24970 ft 414 kts 250°
2026-05-05 10:34 26.98057 88.86346 25216 ft 415 kts 244°
2026-05-05 10:34 26.96647 88.83511 25460 ft 419 kts 240°
2026-05-05 10:34 26.95121 88.80707 25685 ft 423 kts 240°
2026-05-05 10:35 26.93587 88.77891 25958 ft 425 kts 240°
2026-05-05 10:35 26.92046 88.75057 26223 ft 426 kts 240°
2026-05-05 10:35 26.90501 88.72215 26500 ft 428 kts 240°
2026-05-05 10:35 26.88949 88.69367 26777 ft 429 kts 240°
2026-05-05 10:36 26.87409 88.66549 27043 ft 430 kts 240°
2026-05-05 10:36 26.85841 88.63688 27256 ft 432 kts 240°
2026-05-05 10:36 26.84251 88.60782 27545 ft 432 kts 240°
2026-05-05 10:36 26.82704 88.57949 27800 ft 433 kts 240°
2026-05-05 10:37 26.81108 88.55030 28049 ft 434 kts 240°
2026-05-05 10:37 26.79551 88.52181 28347 ft 434 kts 240°
2026-05-05 10:37 26.77982 88.49302 28710 ft 433 kts 240°
2026-05-05 10:37 26.76412 88.46422 29083 ft 432 kts 240°
2026-05-05 10:38 26.74849 88.43563 29506 ft 429 kts 240°
2026-05-05 10:38 26.73294 88.40723 29889 ft 427 kts 240°
2026-05-05 10:38 26.71947 88.37781 30222 ft 423 kts 250°
2026-05-05 10:38 26.71214 88.34611 30504 ft 422 kts 262°
2026-05-05 10:39 26.71149 88.31335 30829 ft 423 kts 274°
2026-05-05 10:39 26.71754 88.28115 31151 ft 426 kts 285°
2026-05-05 10:39 26.73005 88.25084 31517 ft 433 kts 296°
2026-05-05 10:39 26.74583 88.22218 31839 ft 433 kts 296°
2026-05-05 10:40 26.77749 88.16492 31924 ft 432 kts 296°
2026-05-05 10:40 26.80943 88.10793 31926 ft 432 kts 297°
2026-05-05 10:41 26.84144 88.05114 31921 ft 430 kts 296°
2026-05-05 10:41 26.87346 87.99418 31970 ft 434 kts 297°
2026-05-05 10:42 26.92146 87.90843 31967 ft 436 kts 297°
2026-05-05 10:43 26.95352 87.85086 31953 ft 435 kts 297°
2026-05-05 10:43 26.98037 87.80261 31993 ft 435 kts 296°
2026-05-05 10:44 27.01762 87.73566 31992 ft 435 kts 297°
2026-05-05 10:44 27.04422 87.68778 31980 ft 435 kts 297°
2026-05-05 10:45 27.07627 87.63012 31976 ft 435 kts 296°
2026-05-05 10:45 27.10832 87.57244 32008 ft 435 kts 296°
2026-05-05 10:46 27.14036 87.51464 31998 ft 437 kts 296°
2026-05-05 10:46 27.17242 87.45669 31433 ft 437 kts 297°
2026-05-05 10:46 27.18855 87.42745 30456 ft 442 kts 298°
2026-05-05 10:47 27.20479 87.39798 29388 ft 446 kts 298°
2026-05-05 10:47 27.22120 87.36817 28266 ft 451 kts 298°
2026-05-05 10:47 27.23776 87.33811 27144 ft 453 kts 298°
2026-05-05 10:47 27.25441 87.30792 25995 ft 457 kts 298°
2026-05-05 10:48 27.27121 87.27746 24858 ft 459 kts 298°
2026-05-05 10:48 27.28803 87.24689 23765 ft 461 kts 298°
2026-05-05 10:48 27.30441 87.21619 22905 ft 453 kts 295°
2026-05-05 10:48 27.31704 87.18414 22043 ft 445 kts 287°
2026-05-05 10:49 27.32522 87.15088 21400 ft 439 kts 281°
2026-05-05 10:49 27.33153 87.11776 21165 ft 440 kts 281°
2026-05-05 10:49 27.33813 87.08417 21062 ft 439 kts 281°
2026-05-05 10:49 27.34483 87.05062 21090 ft 441 kts 281°
2026-05-05 10:50 27.35159 87.01693 21099 ft 442 kts 281°
2026-05-05 10:50 27.35831 86.98324 21091 ft 442 kts 281°
2026-05-05 10:50 27.36499 86.94945 21094 ft 443 kts 281°
2026-05-05 10:50 27.37163 86.91563 21100 ft 442 kts 281°
2026-05-05 10:51 27.37820 86.88193 21097 ft 440 kts 281°
2026-05-05 10:51 27.38470 86.84833 21094 ft 440 kts 281°
2026-05-05 10:51 27.39120 86.81463 21099 ft 441 kts 281°
2026-05-05 10:51 27.39772 86.78093 21088 ft 441 kts 281°
2026-05-05 10:52 27.40427 86.74731 21087 ft 440 kts 281°
2026-05-05 10:52 27.41085 86.71369 21090 ft 440 kts 281°
2026-05-05 10:52 27.41740 86.68006 21093 ft 440 kts 281°
2026-05-05 10:52 27.42390 86.64643 21083 ft 439 kts 281°
2026-05-05 10:53 27.43037 86.61285 21063 ft 440 kts 281°
2026-05-05 10:53 27.43686 86.57911 21124 ft 442 kts 281°
2026-05-05 10:53 27.44340 86.54521 21128 ft 443 kts 280°
2026-05-05 10:53 27.44995 86.51138 21126 ft 442 kts 281°
2026-05-05 10:54 27.45648 86.47758 21093 ft 442 kts 281°
2026-05-05 10:54 27.46299 86.44379 21096 ft 442 kts 281°
2026-05-05 10:54 27.46950 86.40998 21093 ft 442 kts 281°
2026-05-05 10:54 27.47601 86.37617 21095 ft 442 kts 281°
2026-05-05 10:55 27.48250 86.34238 21096 ft 442 kts 281°
2026-05-05 10:55 27.48896 86.30861 21060 ft 442 kts 280°
2026-05-05 10:55 27.49542 86.27472 21064 ft 442 kts 280°
2026-05-05 10:55 27.50113 86.24074 21061 ft 441 kts 278°
2026-05-05 10:56 27.50564 86.20704 21065 ft 440 kts 276°
2026-05-05 10:56 27.50944 86.17282 21045 ft 441 kts 275°
2026-05-05 10:56 27.51292 86.13841 21028 ft 443 kts 274°
2026-05-05 10:56 27.51644 86.10408 21024 ft 435 kts 275°
2026-05-05 10:57 27.52004 86.07112 21027 ft 413 kts 275°
2026-05-05 10:57 27.52363 86.03990 21028 ft 392 kts 275°
2026-05-05 10:57 27.52718 86.01011 21029 ft 375 kts 275°
2026-05-05 10:57 27.53062 85.98162 21027 ft 359 kts 275°
2026-05-05 10:58 27.53388 85.95439 21027 ft 342 kts 275°
2026-05-05 10:58 27.53696 85.92835 21077 ft 330 kts 275°
2026-05-05 10:58 27.53995 85.90282 21076 ft 327 kts 275°
2026-05-05 10:58 27.54289 85.87747 21051 ft 326 kts 275°
2026-05-05 10:59 27.54590 85.85214 21051 ft 326 kts 277°
2026-05-05 10:59 27.55171 85.82730 21056 ft 329 kts 284°
2026-05-05 10:59 27.55862 85.80275 21055 ft 329 kts 284°
2026-05-05 10:59 27.56553 85.77815 21054 ft 329 kts 284°
2026-05-05 11:00 27.57240 85.75357 21054 ft 329 kts 284°
2026-05-05 11:00 27.57924 85.72902 21040 ft 328 kts 284°
2026-05-05 11:00 27.58603 85.70462 20707 ft 325 kts 284°
2026-05-05 11:00 27.59279 85.68036 20304 ft 324 kts 284°
2026-05-05 11:01 27.59930 85.65616 19921 ft 321 kts 281°
2026-05-05 11:01 27.60168 85.63143 19540 ft 316 kts 266°
2026-05-05 11:01 27.59847 85.60721 19169 ft 312 kts 252°
2026-05-05 11:01 27.59002 85.58483 19032 ft 311 kts 240°
2026-05-05 11:02 27.57928 85.56396 19041 ft 312 kts 240°
2026-05-05 11:02 27.56853 85.54268 19044 ft 313 kts 241°
2026-05-05 11:02 27.55787 85.52140 18817 ft 311 kts 241°
2026-05-05 11:02 27.54726 85.50026 18465 ft 309 kts 240°
2026-05-05 11:03 27.53669 85.47926 18048 ft 307 kts 240°
2026-05-05 11:03 27.52612 85.45831 17574 ft 307 kts 241°
2026-05-05 11:03 27.51568 85.43765 17394 ft 298 kts 241°
2026-05-05 11:03 27.50567 85.41787 17262 ft 283 kts 241°
2026-05-05 11:04 27.49621 85.39919 17122 ft 266 kts 241°
2026-05-05 11:04 27.48722 85.38144 16802 ft 257 kts 241°
2026-05-05 11:04 27.47845 85.36413 16435 ft 253 kts 241°
2026-05-05 11:04 27.46956 85.34657 15749 ft 262 kts 241°
2026-05-05 11:05 27.46044 85.32858 15347 ft 266 kts 241°
2026-05-05 11:05 27.45444 85.30909 14930 ft 265 kts 267°
2026-05-05 11:05 27.45801 85.28897 14532 ft 266 kts 297°
2026-05-05 11:05 27.47057 85.27383 14112 ft 270 kts 330°
2026-05-05 11:06 27.48855 85.26827 13718 ft 272 kts
2026-05-05 11:06 27.50684 85.27339 13206 ft 273 kts 20°
2026-05-05 11:06 27.52448 85.28116 12868 ft 267 kts 21°
2026-05-05 11:06 27.54153 85.28869 12476 ft 261 kts 21°
2026-05-05 11:07 27.55829 85.29618 12054 ft 257 kts 20°
2026-05-05 11:07 27.57452 85.30356 11647 ft 254 kts 21°
2026-05-05 11:07 27.59105 85.31114 11108 ft 254 kts 20°
2026-05-05 11:07 27.60755 85.31839 9814 ft 260 kts 20°
2026-05-05 11:08 27.62408 85.32535 8333 ft 247 kts 18°
2026-05-05 11:08 27.63987 85.33208 6996 ft 238 kts 21°
2026-05-05 11:08 27.65487 85.33932 5680 ft 232 kts 24°
2026-05-05 11:08 27.66943 85.34652 4586 ft 220 kts 21°
2026-05-05 11:09 27.68234 85.35261 4362 ft 182 kts 19°
2026-05-05 11:09 27.69264 85.35717 4356 ft 135 kts 22°
2026-05-05 11:09 27.69840 85.35988 4371 ft 30 kts 20°